Tracking 23114 objects as of 14-May-2021
HD Live streaming from Space Station
objects crossing your sky now

CZ-2C DEB

Track CZ-2C DEB now!
10-day predictions


NORAD ID: 38863
Int'l Code: 2012-056D
Perigee: 604.8 km
Apogee: 626.1 km
Inclination: 97.8 °
Period: 96.9 minutes
Semi major axis: 6986 km
RCS: 4.6535 m2 (large)
Launch date: October 14, 2012
Source: People's Republic of China (PRC)
Launch site: Taiyaun Space Center, China (TSC)

Note: This is SATELLITE DEBRIS
aabbcc
Your satellite tracking list
Your tracking list is empty




NASA's NSSDC Master Catalog

Two Line Element Set (TLE):
1 38863U 12056D   21134.11635528  .00000510  00000-0  63339-4 0  9998
2 38863  97.7546 212.1603 0015203 176.9585 183.1726 14.86677652464784
Source of the keplerian elements: AFSPC